STARLINK-31172

decayed
NORAD ID: 58837 Int'l Des: 2024-017 Owner: SPXS Country: US Constellation: starlink
LEOCIRCULAR
Group

About STARLINK-31172

Description loading...

Altitude History

Altitude vs Time

uPlot chart will show altitude changes over time

Two-Line Element Set

1 58837U 24017M 25094.79512534 .02085462 45044-2 17506-2 0 9998
2 58837 53.1257 295.3842 0011051 286.3410 88.6664 16.14036955 68777
Epoch: Apr 4, 2025 • Age: 3943 hours

Current Status

Position data unavailable
Launch Date Jan 24, 2024
Age 1.6 years
Decay Date Apr 5, 2025
Type internet

Technical Details

Classification Payload
Mass 730.00 kg
Dry Mass 700.00 kg
Total Mass 730.00 kg
Length 0.30 m
Diameter 4.10 m
Span 29.00 m
Shape Box + pan
Manufacturer SPXS
Bus Type Starlink V2M
Phase Status Unknown Transfer Status
Owner/State SPXS/US

Large Constellations

Loading constellations...